SCP
1 1 1 1 1 1 1 1 1 1 1 1 1 1 3 4 3 2 1 1 0 0 0 0 0 0 0 0 1 1 1 0 0 0 0 0 0 0
1 1 1 1 1 1 1 1 1 1 1 1 1 1 2 3 3 2 1 1 0 0 0 0 0 0 0 0 0 1 1 0 0 0 0 0 0 0
1 1 1 1 1 1 1 1 1 1 1 1 1 1 2 2 2 2 1 1 0 0 0 0 0 0 0 0 0 0 0 0 0 0 0 0 0 0
0 0 0 0 1 1 1 1 1 1 0 0 0 1 1 1 2 2 1 1 0 0 0 0 0 0 0 0 0 0 0 0 0 0 0 0 0 0
0 0 0 0 1 1 1 1 1 1 0 0 0 0 1 1 1 1 1 0 0 0 0 0 0 0 0 0 0 0 0 0 0 0 0 0 0 0
0 0 0 0 0 0 0 1 1 0 0 0 0 0 0 1 1 1 0 0 0 0 0 0 0 0 0 0 0 0 0 0 0 0 0 0 0 0
0 0 0 0 0 0 0 0 0 0 0 0 0 0 0 0 0 0 0 0 0 0 0 0 0 0 0 0 0 0 0 0 0 0 0 0 0 0
0 0 0 0 0 0 0 0 0 0 0 0 0 0 0 0 0 0 0 0 0 0 0 0 0 0 0 0 0 0 0 0 0 0 0 0 0 0
0 0 0 0 0 0 0 0 0 0 0 0 0 0 0 0 0 0 0 0 0 0 0 0 0 0 0 0 0 0 0 0 0 0 0 0 0 0
0 0 0 0 0 0 0 0 0 0 0 0 0 0 0 0 0 0 0 0 0 0 0 0 0 0 0 0 0 0 0 0 0 0 0 0 0 0
0 0 0 0 0 0 0 0 0 0 0 0 0 0 0 0 0 0 0 0 0 0 0 0 0 0 0 0 0 0 0 0 0 0 0 0 0 0
0 0 0 0 0 0 0 0 0 0 0 0 0 0 0 0 0 0 0 0 0 0 0 0 0 0 0 0 0 0 0 0 0 0 0 0 0 0
0 0 0 0 0 0 0 0 0 0 0 0 0 0 0 0 0 0 0 0 0 0 0 0 0 0 0 0 0 0 0 0 0 0 0 0 0 0
0 0 0 0 0 0 0 0 0 0 0 0 0 0 0 0 0 0 0 0 1 0 0 0 0 0 0 0 0 0 1 1 1 1 0 0 0 0
0 0 0 0 0 0 0 0 0 0 0 0 0 0 0 0 0 0 0 1 1 1 1 1 1 1 1 1 1 1 1 1 1 1 1 1 0 0
0 0 0 0 0 0 0 0 0 0 0 0 0 0 0 0 0 0 0 0 0 0 1 1 1 2 1 1 1 1 1 1 1 1 1 1 0 0
0 0 0 0 0 0 0 0 0 0 0 0 0 0 0 0 0 0 0 0 0 0 0 1 1 2 1 1 1 1 1 1 1 1 0 0 0 0
0 0 0 0 0 0 0 0 0 0 0 0 0 0 0 0 0 0 0 0 0 0 0 0 1 1 1 1 1 1 0 0 0 1 0 0 0 0
0 0 0 0 0 0 0 0 0 0 0 0 0 0 0 0 0 0 0 0 0 0 0 0 0 0 0 0 0 0 0 0 0 1 1 0 0 0
0 0 0 0 0 0 0 0 0 0 0 0 0 0 0 0 0 0 0 0 0 0 0 0 0 0 0 0 0 0 0 0 0 1 1 1 0 0
0 0 0 0 0 0 0 0 0 0 0 0 0 0 0 0 0 0 0 0 0 0 0 0 0 0 0 0 0 0 0 0 0 0 0 0 0 0
0 0 0 0 0 0 0 0 0 0 0 0 0 0 0 0 0 0 0 0 0 0 0 0 0 0 0 0 0 0 0 0 0 0 0 0 0 0
0 0 0 0 0 0 0 0 0 0 0 0 0 0 0 0 0 0 0 0 0 0 0 0 0 0 0 0 0 0 0 0 0 0 0 0 0 0
Wind_Speed
3 3 2 2 2 1 1 1 2 2 1 0 1 1 1 2 3 2 4 7 8 8 7 7 8 9 9 9 9 9 9 9 9 8 7 7 8 8
2 3 3 2 2 2 1 1 1 1 1 0 1 1 1 2 4 3 4 8 8 8 8 8 8 8 8 8 8 8 8 7 7 7 7 7 7 7
4 3 3 3 2 2 2 1 1 0 1 0 1 1 1 2 3 2 3 3 4 7 7 7 7 6 7 6 6 6 6 5 6 6 7 7 6 5
4 4 4 3 3 2 2 2 1 0 1 1 0 0 1 2 2 2 2 3 3 6 7 7 6 6 6 5 5 5 4 4 5 6 6 6 6 5
4 4 4 4 3 2 2 1 1 1 1 1 1 1 1 1 2 2 3 2 3 5 6 6 6 5 5 5 5 4 4 4 4 4 4 5 5 5
4 4 4 4 4 4 2 2 1 1 1 1 1 1 1 1 2 2 2 1 2 3 4 4 5 4 4 3 4 4 4 4 4 4 4 4 4 4
3 3 4 4 5 4 2 2 1 0 0 1 1 1 1 1 1 1 2 2 1 2 3 2 3 2 3 4 4 5 5 6 6 5 5 5 5 5
4 3 2 3 3 4 3 2 1 0 0 0 0 1 1 1 1 2 2 2 1 2 2 2 3 3 3 3 6 8 8 8 7 7 7 6 6 6
3 4 4 5 5 3 1 1 2 1 1 1 0 0 1 1 1 1 1 2 1 2 2 1 2 3 3 4 9 10 10 10 10 9 9 8 8 9
3 4 4 4 6 5 3 2 2 1 0 2 1 1 1 0 1 1 1 1 0 1 2 1 2 2 3 3 9 12 12 12 12 11 11 11 10 10
3 4 4 4 6 6 2 2 2 1 1 2 1 1 2 1 1 0 0 1 0 1 1 1 1 2 2 3 6 12 13 13 13 13 13 12 12 10
1 2 5 5 6 6 2 2 1 1 1 1 1 1 3 3 4 3 1 1 0 1 1 1 1 1 1 2 3 4 7 10 13 14 14 14 13 7
2 2 2 5 5 5 3 1 1 2 2 1 1 1 2 2 2 2 2 2 1 1 2 1 1 1 1 2 2 3 5 5 6 8 13 16 15 11
3 2 2 4 5 5 3 2 3 3 2 1 0 0 0 1 1 2 2 2 2 3 3 2 2 2 2 2 3 2 3 4 4 5 6 10 13 16
2 4 5 5 5 4 4 4 3 2 1 1 0 0 1 1 1 1 2 2 3 4 4 4 3 3 3 3 3 3 3 4 4 4 4 5 5 5
3 4 6 7 6 5 4 4 3 2 2 1 1 1 1 1 2 2 2 2 2 3 4 5 5 4 3 4 4 4 4 4 4 4 4 4 4 5
5 3 3 3 3 3 3 3 2 2 2 1 1 1 2 2 2 2 2 2 2 3 2 3 4 4 5 5 4 5 4 4 4 4 4 4 5 6
4 4 4 3 3 2 2 1 1 1 1 1 2 2 2 2 2 2 2 3 3 3 2 3 3 3 3 5 6 5 4 4 4 4 4 5 6 6
3 5 4 3 2 2 2 2 1 1 1 1 2 2 2 2 2 2 2 2 3 2 3 2 2 2 3 5 5 5 4 4 4 4 5 5 6 6
5 5 4 3 2 2 2 1 1 2 2 2 2 2 2 2 2 3 3 3 3 3 3 3 3 3 4 4 4 5 8 7 5 6 6 6 6 8
4 4 3 2 2 2 2 1 1 1 1 1 1 2 2 2 3 3 3 4 3 3 4 4 4 5 4 3 4 5 6 9 9 6 6 5 5 5
5 3 2 2 2 2 2 2 2 2 2 2 2 2 3 3 3 4 3 3 3 4 4 4 3 3 3 4 6 7 6 5 7 12 11 9 5 5
4 3 3 3 3 3 2 2 3 2 2 2 2 2 3 2 3 3 4 4 4 4 4 4 3 3 4 5 5 6 7 6 5 4 5 10 13 15
Wind_Direction
338 335 328 323 321 295 260 231 239 259 281 17 50 41 55 75 84 79 77 74 75 78 79 85 91 96 99 102 105 107 107 110 117 124 135 147 154 164
349 352 347 336 329 323 308 280 251 235 246 12 55 32 54 88 92 87 92 89 83 88 88 91 93 97 103 107 112 114 115 119 127 134 138 141 146 159
0 0 358 350 339 333 325 310 284 196 178 277 57 65 77 102 106 107 111 111 104 100 100 100 99 102 108 111 115 121 125 129 136 140 139 138 144 153
7 4 1 356 359 353 350 355 339 341 165 171 159 83 102 125 129 121 112 113 116 113 111 110 108 108 108 111 115 121 128 138 145 147 149 154 162 169
12 10 4 2 359 356 359 358 357 46 105 155 173 145 142 137 119 109 108 115 120 130 124 117 115 115 114 118 118 118 125 136 139 147 157 163 169 173
13 12 9 9 1 354 7 11 30 69 129 148 161 151 147 155 144 139 130 143 137 139 127 131 136 137 136 145 147 149 159 166 167 173 180 188 199 204
12 22 25 27 22 12 11 2 4 36 89 135 140 129 142 149 166 168 149 148 135 150 136 147 152 162 174 193 193 186 187 190 192 198 207 215 220 225
6 8 12 28 29 29 33 29 27 81 90 57 101 125 144 157 161 167 153 153 183 179 162 187 175 186 190 192 197 197 200 201 204 208 214 221 227 231
5 0 11 21 13 3 14 57 55 85 184 200 208 229 211 194 175 176 177 193 209 180 168 203 191 200 205 201 193 200 206 209 212 217 222 226 231 233
15 9 14 15 8 357 9 54 66 51 125 187 205 244 215 183 179 202 197 188 164 176 165 198 206 208 209 192 198 204 210 214 217 222 226 230 233 235
25 27 15 14 3 7 21 51 61 58 75 102 139 195 208 232 219 86 101 124 185 223 191 203 231 223 207 206 213 212 215 217 222 226 229 230 233 235
31 63 38 15 10 15 17 24 39 353 4 84 136 206 211 218 213 197 191 188 199 225 214 212 243 240 254 228 210 208 218 227 228 232 233 234 233 233
5 32 29 8 8 7 11 14 325 305 305 286 207 197 204 196 191 188 192 183 194 237 217 200 258 260 245 266 239 215 208 217 220 232 234 235 232 222
352 6 17 354 349 343 341 316 309 310 283 269 186 171 171 160 173 179 202 210 221 222 222 217 245 253 263 271 270 249 233 224 219 220 220 225 229 229
320 319 314 309 310 300 269 272 281 268 262 242 207 199 195 178 191 211 235 234 243 244 234 223 230 248 247 258 265 257 256 251 236 232 225 220 220 214
296 288 282 278 276 278 278 262 243 230 222 233 225 201 204 218 225 226 221 219 238 250 235 222 222 235 252 258 256 259 253 249 249 245 241 238 232 225
327 296 274 268 258 243 239 230 221 209 214 224 235 231 232 236 235 230 235 249 252 253 245 237 232 227 233 243 260 263 263 262 254 251 251 259 255 245
325 296 291 276 267 257 248 234 223 215 210 211 232 250 253 254 252 244 242 249 257 261 256 244 244 250 256 256 237 252 264 263 261 254 246 255 265 260
281 277 274 270 267 260 253 245 228 203 207 246 252 248 254 258 259 264 265 268 266 268 269 258 250 256 276 283 274 237 249 266 266 262 255 253 260 262
246 258 262 262 264 267 265 255 231 214 216 228 243 249 263 277 283 279 274 269 269 273 277 273 258 249 254 268 276 264 244 245 255 259 262 259 258 263
264 252 254 258 265 263 265 259 262 268 256 249 259 264 268 273 277 278 279 283 277 272 272 266 255 251 253 261 272 269 257 239 235 243 256 267 271 272
266 267 265 256 257 257 251 249 238 233 236 236 247 252 254 261 273 278 283 286 277 272 274 269 266 263 265 268 276 279 277 271 253 252 252 247 250 260
256 265 268 262 254 245 246 254 259 249 239 240 242 247 255 263 269 272 274 278 284 288 291 290 286 280 280 280 284 287 290 290 286 280 269 261 253 253